Alamogordo, NM

2:39 PM MST on December 15, 2019 (GMT -0700)
Alamogordo-White Sands Regional

Weather History for KALM - November, 2019

Change the Weather History Date:

Friday, November 15, 2019

  Actual Average Record
Temperature  
Mean Temperature 46 °F -  
Max Temperature 59 °F 63 °F 80 °F (1966)
Min Temperature 32 °F 35 °F 23 °F (2018)
Degree Days  
Heating Degree Days 20    
Moisture  
Dew Point 24 °F    
Average Humidity 46    
Maximum Humidity 70    
Minimum Humidity 25    
Precipitation  
Precipitation 0.00 in - - ()
Sea Level Pressure  
Sea Level Pressure 30.31 in    
Wind  
Wind Speed 5 mph ()    
Max Wind Speed 10 mph    
Max Gust Speed -    
Visibility 10.0 miles    
Events      
Averages and records for this station are not official NWS values.
T = Trace of Precipitation, MM = Missing Value Source: Averaged Metar Reports

Daily Weather History Graph

Daily Weather History Graph

Search for Another Location

Airport or City:

Astronomy

Nov. 15, 2019 Rise Set
Actual Time 6:34 AM MST 5:02 PM MST
Civil Twilight 6:07 AM MST 5:28 PM MST
Nautical Twilight 5:38 AM MST 5:58 PM MST
Astronomical Twilight 5:08 AM MST 6:27 PM MST
Moon 7:46 PM MST 9:27 AM MST
Length of Visible Light 11h 20m
Length of Day
10h 28m
Waning Gibbous, 89% of the Moon is Illuminated
Nov 15
Waning Gibbous
Nov 19
Last Quarter
Nov 26
New
Dec 3
First Quarter
Dec 11
Full

Hourly Weather History & Observations

Time (MST) Temp. Windchill Dew Point Humidity Pressure Visibility Wind Dir Wind Speed Gust Speed Precip Events Conditions
12:15 AM 33.8 °F 28.6 °F 23.0 °F 65% 30.39 in 10.0 mi NNE 5.8 mph - N/A   Clear
12:35 AM 35.6 °F 31.7 °F 23.0 °F 60% 30.38 in 10.0 mi NNE 4.6 mph - N/A   Clear
12:55 AM 37.4 °F 33.8 °F 24.8 °F 60% 30.39 in 10.0 mi NNW 4.6 mph - N/A   Clear
1:15 AM 35.6 °F 30.7 °F 24.8 °F 65% 30.39 in 10.0 mi North 5.8 mph - N/A   Clear
1:35 AM 35.6 °F 30.7 °F 24.8 °F 65% 30.39 in 10.0 mi NNE 5.8 mph - N/A   Clear
1:55 AM 33.8 °F 25.8 °F 23.0 °F 65% 30.39 in 10.0 mi NE 10.4 mph - N/A   Clear
2:15 AM 35.6 °F 29.2 °F 23.0 °F 60% 30.39 in 10.0 mi NNE 8.1 mph - N/A   Clear
2:35 AM 37.4 °F 30.8 °F 23.0 °F 56% 30.39 in 10.0 mi North 9.2 mph - N/A   Clear
2:55 AM 35.6 °F 29.2 °F 24.8 °F 65% 30.39 in 10.0 mi North 8.1 mph - N/A   Clear
3:15 AM 35.6 °F 28.6 °F 24.8 °F 65% 30.38 in 10.0 mi North 9.2 mph - N/A   Clear
3:35 AM 35.6 °F 29.2 °F 24.8 °F 65% 30.38 in 10.0 mi North 8.1 mph - N/A   Clear
3:55 AM 35.6 °F 29.9 °F 24.8 °F 65% 30.38 in 10.0 mi North 6.9 mph - N/A   Clear
4:15 AM 32.0 °F 26.4 °F 23.0 °F 69% 30.38 in 10.0 mi NNW 5.8 mph - N/A   Clear
4:35 AM 32.0 °F 25.6 °F 23.0 °F 69% 30.38 in 10.0 mi NW 6.9 mph - N/A   Clear
4:55 AM 32.0 °F 24.8 °F 23.0 °F 69% 30.38 in 10.0 mi North 8.1 mph - N/A   Clear
5:15 AM 32.0 °F 25.6 °F 23.0 °F 69% 30.38 in 10.0 mi NNE 6.9 mph - N/A   Clear
5:35 AM 33.8 °F 27.0 °F 23.0 °F 65% 30.38 in 10.0 mi North 8.1 mph - N/A   Clear
6:15 AM 35.6 °F 29.2 °F 24.8 °F 65% 30.39 in 10.0 mi NNE 8.1 mph - N/A   Clear
6:35 AM 33.8 °F 26.4 °F 24.8 °F 70% 30.39 in 10.0 mi NE 9.2 mph - N/A   Clear
6:55 AM 35.6 °F 30.7 °F 23.0 °F 60% 30.39 in 10.0 mi NNE 5.8 mph - N/A   Clear
7:15 AM 37.4 °F 32.8 °F 24.8 °F 60% 30.39 in 10.0 mi North 5.8 mph - N/A   Clear
7:35 AM 39.2 °F 37.0 °F 24.8 °F 56% 30.40 in 10.0 mi NNE 3.5 mph - N/A   Clear
7:55 AM 41.0 °F - 26.6 °F 57% 30.41 in 10.0 mi Calm Calm - N/A   Clear
8:35 AM 44.6 °F - 26.6 °F 49% 30.41 in 10.0 mi Calm Calm - N/A   Clear
8:55 AM 46.4 °F 45.2 °F 26.6 °F 46% 30.41 in 10.0 mi NW 3.5 mph - N/A   Clear
9:15 AM 46.4 °F 45.2 °F 26.6 °F 46% 30.41 in 10.0 mi North 3.5 mph - N/A   Clear
9:35 AM 48.2 °F - 26.6 °F 43% 30.40 in 10.0 mi Calm Calm - N/A   Clear
9:55 AM 48.2 °F - 26.6 °F 43% 30.40 in 10.0 mi Calm Calm - N/A   Clear
10:15 AM 50.0 °F - 26.6 °F 40% 30.39 in 10.0 mi Calm Calm - N/A   Clear
10:35 AM 53.6 °F - 26.6 °F 35% 30.39 in 10.0 mi SW 5.8 mph - N/A   Clear
10:55 AM 53.6 °F - 26.6 °F 35% 30.38 in 10.0 mi SW 4.6 mph - N/A   Clear
11:15 AM 53.6 °F - 24.8 °F 33% 30.37 in 10.0 mi SW 8.1 mph - N/A   Clear
11:35 AM 53.6 °F - 24.8 °F 33% 30.36 in 10.0 mi SW 5.8 mph - N/A   Clear
11:55 AM 55.4 °F - 24.8 °F 31% 30.34 in 10.0 mi West 4.6 mph - N/A   Clear
12:15 PM 55.4 °F - 26.6 °F 33% 30.33 in 10.0 mi South 4.6 mph - N/A   Clear
12:35 PM 55.4 °F - 24.8 °F 31% 30.31 in 10.0 mi Calm Calm - N/A   Clear
12:55 PM 57.2 °F - 24.8 °F 29% 30.30 in 10.0 mi WNW 3.5 mph - N/A   Clear
1:15 PM 57.2 °F - 24.8 °F 29% 30.29 in 10.0 mi Calm Calm - N/A   Clear
1:35 PM 57.2 °F - 24.8 °F 29% 30.28 in 10.0 mi Calm Calm - N/A   Clear
1:55 PM 59.0 °F - 24.8 °F 27% 30.26 in 10.0 mi NW 3.5 mph - N/A   Clear
2:15 PM 59.0 °F - 24.8 °F 27% 30.26 in 10.0 mi Calm Calm - N/A   Clear
2:35 PM 59.0 °F - 24.8 °F 27% 30.25 in 10.0 mi Calm Calm - N/A   Clear
2:55 PM 59.0 °F - 23.0 °F 25% 30.24 in 10.0 mi WNW 6.9 mph - N/A   Clear
3:15 PM 59.0 °F - 23.0 °F 25% 30.24 in 10.0 mi WNW 3.5 mph - N/A   Clear
3:35 PM 59.0 °F - 23.0 °F 25% 30.23 in 10.0 mi WNW 3.5 mph - N/A   Clear
3:55 PM 59.0 °F - 23.0 °F 25% 30.23 in 10.0 mi West 3.5 mph - N/A   Clear
4:15 PM 59.0 °F - 23.0 °F 25% 30.22 in 10.0 mi West 4.6 mph - N/A   Clear
4:35 PM 57.2 °F - 23.0 °F 27% 30.22 in 10.0 mi West 4.6 mph - N/A   Clear
4:55 PM 55.4 °F - 21.2 °F 26% 30.22 in 10.0 mi West 4.6 mph - N/A   Clear
5:15 PM 53.6 °F - 21.2 °F 28% 30.22 in 10.0 mi West 3.5 mph - N/A   Clear
5:35 PM 51.8 °F - 23.0 °F 33% 30.22 in 10.0 mi NW 3.5 mph - N/A   Clear
5:55 PM 50.0 °F - 24.8 °F 37% 30.22 in 10.0 mi North 4.6 mph - N/A   Clear
6:15 PM 50.0 °F - 24.8 °F 37% 30.22 in 10.0 mi North 3.5 mph - N/A   Clear
6:35 PM 48.2 °F - 24.8 °F 40% 30.22 in 10.0 mi NNE 6.9 mph - N/A   Clear
6:55 PM 46.4 °F 42.4 °F 24.8 °F 43% 30.22 in 10.0 mi NNE 8.1 mph - N/A   Clear
7:15 PM 46.4 °F 42.9 °F 23.0 °F 40% 30.22 in 10.0 mi NE 6.9 mph - N/A   Clear
7:35 PM 46.4 °F 42.9 °F 24.8 °F 43% 30.22 in 10.0 mi NNE 6.9 mph - N/A   Clear
7:55 PM 44.6 °F 40.7 °F 24.8 °F 46% 30.22 in 10.0 mi NNE 6.9 mph - N/A   Clear
8:15 PM 46.4 °F 42.9 °F 24.8 °F 43% 30.21 in 10.0 mi NNE 6.9 mph - N/A   Clear
8:35 PM 46.4 °F 43.5 °F 24.8 °F 43% 30.22 in 10.0 mi NNE 5.8 mph - N/A   Clear
8:55 PM 42.8 °F 39.3 °F 24.8 °F 49% 30.22 in 10.0 mi NE 5.8 mph - N/A   Clear
9:15 PM 41.0 °F 38.0 °F 24.8 °F 53% 30.22 in 10.0 mi ENE 4.6 mph - N/A   Clear
9:35 PM 42.8 °F 40.1 °F 23.0 °F 46% 30.22 in 10.0 mi NE 4.6 mph - N/A   Clear
9:55 PM 41.0 °F 39.0 °F 23.0 °F 49% 30.22 in 10.0 mi ENE 3.5 mph - N/A   Clear
10:15 PM 39.2 °F 35.9 °F 23.0 °F 52% 30.22 in 10.0 mi East 4.6 mph - N/A   Clear
10:35 PM 39.2 °F 35.0 °F 23.0 °F 52% 30.22 in 10.0 mi ENE 5.8 mph - N/A   Clear
10:55 PM 39.2 °F 35.9 °F 23.0 °F 52% 30.21 in 10.0 mi ENE 4.6 mph - N/A   Clear
11:15 PM 41.0 °F 37.1 °F 23.0 °F 49% 30.21 in 10.0 mi ENE 5.8 mph - N/A   Clear
11:55 PM 39.2 °F 37.0 °F 23.0 °F 52% 30.20 in 10.0 mi ESE 3.5 mph - N/A   Clear